| time (UTC) | temp F | wind direction | speed MPH | gust MPH | rain 1hr in | rain 24hr in | rain mn in | humidity % | barometer mb |
| 20260505051337 | 56 | 248 | 0.0 | 0.0 | 0.00 | 0.00 | 0.00 | 86 | 1011.5 |
| 20260505041330 | 58 | 252 | 0.0 | 0.0 | 0.00 | 0.00 | 0.00 | 85 | 1010.4 |
| 20260505035827 | 59 | 254 | 0.0 | 0.0 | 0.00 | 0.00 | 0.00 | 82 | 1010.3 |
| 20260505034327 | 61 | 251 | 0.0 | 0.0 | 0.00 | 0.00 | 0.00 | 79 | 1010.4 |
| 20260505032826 | 62 | 242 | 0.0 | 0.0 | 0.00 | 0.00 | 0.00 | 75 | 1009.9 |
| 20260505031321 | 63 | 243 | 0.0 | 0.0 | 0.00 | 0.00 | 0.00 | 73 | 1009.9 |
| 20260505025821 | 64 | 241 | 0.0 | 0.0 | 0.00 | 0.00 | 0.00 | 70 | 1009.8 |
| 20260505024321 | 66 | 248 | 0.0 | 0.0 | 0.00 | 0.00 | 0.00 | 66 | 1009.5 |
| 20260505022818 | 68 | 256 | 1.0 | 1.0 | 0.00 | 0.00 | 0.00 | 56 | 1009.4 |
| 20260505021314 | 70 | 272 | 1.0 | 1.0 | 0.00 | 0.00 | 0.00 | 52 | 1009.2 |
| 20260505015809 | 72 | 217 | 4.0 | 5.0 | 0.00 | 0.00 | 0.00 | 46 | 1009.4 |
| 20260505014307 | 73 | 263 | 0.0 | 0.0 | 0.00 | 0.00 | 0.00 | 50 | 1009.5 |
| 20260505012804 | 75 | 254 | 0.0 | 0.0 | 0.00 | 0.00 | 0.00 | 44 | 1009.2 |
| 20260505011300 | 76 | 253 | 1.0 | 2.0 | 0.00 | 0.00 | 0.00 | 41 | 1009.2 |
| 20260505005800 | 76 | 248 | 0.0 | 1.0 | 0.00 | 0.00 | 0.00 | 41 | 1009.0 |
| 20260505004256 | 77 | 242 | 1.0 | 1.0 | 0.00 | 0.00 | 0.00 | 43 | 1009.5 |
| 20260505002753 | 77 | 295 | 2.0 | 5.0 | 0.00 | 0.00 | 0.00 | 40 | 1009.5 |
| 20260505001251 | 78 | 243 | 2.0 | 2.0 | 0.00 | 0.00 | 0.00 | 42 | 1009.1 |
| 20260504235748 | 77 | 311 | 3.0 | 3.0 | 0.00 | 0.00 | 0.00 | 40 | 1009.5 |
| 20260504234245 | 78 | 207 | 2.0 | 2.0 | 0.00 | 0.00 | 0.00 | 40 | 1009.2 |
| 20260504232746 | 79 | 46 | 2.0 | 3.0 | 0.00 | 0.00 | 0.00 | 39 | 1009.6 |
| 20260504231242 | 77 | 322 | 4.0 | 6.0 | 0.00 | 0.00 | 0.00 | 42 | 1009.4 |
| 20260504225741 | 77 | 139 | 1.0 | 1.0 | 0.00 | 0.00 | 0.00 | 43 | 1009.9 |
| 20260504224237 | 78 | 333 | 3.0 | 7.0 | 0.00 | 0.00 | 0.00 | 43 | 1009.8 |
| 20260504222732 | 77 | 116 | 3.0 | 6.0 | 0.00 | 0.00 | 0.00 | 44 | 1009.8 |
| 20260504221229 | 77 | 115 | 6.0 | 8.0 | 0.00 | 0.00 | 0.00 | 44 | 1010.0 |
| 20260504215725 | 78 | 228 | 2.0 | 3.0 | 0.00 | 0.00 | 0.00 | 45 | 1010.0 |
| 20260504214221 | 78 | 272 | 7.0 | 8.0 | 0.00 | 0.00 | 0.00 | 44 | 1010.2 |
| 20260504212717 | 77 | 112 | 5.0 | 7.0 | 0.00 | 0.00 | 0.00 | 45 | 1010.4 |
| 20260504211212 | 77 | 143 | 5.0 | 9.0 | 0.00 | 0.00 | 0.00 | 43 | 1010.2 |
| 20260504205710 | 78 | 237 | 5.0 | 8.0 | 0.00 | 0.00 | 0.00 | 46 | 1010.2 |
| 20260504204210 | 78 | 168 | 3.0 | 5.0 | 0.00 | 0.00 | 0.00 | 45 | 1010.2 |
| 20260504202705 | 77 | 2 | 2.0 | 2.0 | 0.00 | 0.00 | 0.00 | 45 | 1010.4 |
| 20260504201203 | 77 | 170 | 4.0 | 6.0 | 0.00 | 0.00 | 0.00 | 47 | 1010.3 |
| 20260504195659 | 77 | 271 | 3.0 | 6.0 | 0.00 | 0.00 | 0.00 | 46 | 1010.4 |
| 20260504194159 | 77 | 272 | 3.0 | 3.0 | 0.00 | 0.00 | 0.00 | 46 | 1010.4 |
| 20260504192658 | 76 | 240 | 1.0 | 1.0 | 0.00 | 0.00 | 0.00 | 48 | 1010.5 |
| 20260504191156 | 75 | 233 | 2.0 | 3.0 | 0.00 | 0.00 | 0.00 | 48 | 1010.9 |
| 20260504185651 | 75 | 174 | 2.0 | 3.0 | 0.00 | 0.00 | 0.00 | 48 | 1010.9 |
| 20260504184150 | 74 | 87 | 5.0 | 6.0 | 0.00 | 0.00 | 0.00 | 48 | 1010.6 |
| 20260504182648 | 73 | 212 | 1.0 | 1.0 | 0.00 | 0.00 | 0.00 | 48 | 1010.7 |
| 20260504181146 | 73 | 130 | 3.0 | 5.0 | 0.00 | 0.00 | 0.00 | 47 | 1010.6 |
| 20260504175646 | 74 | 183 | 1.0 | 1.0 | 0.00 | 0.00 | 0.00 | 47 | 1010.7 |
| 20260504174143 | 72 | 89 | 1.0 | 2.0 | 0.00 | 0.00 | 0.00 | 49 | 1011.0 |
| 20260504172640 | 72 | 222 | 2.0 | 3.0 | 0.00 | 0.00 | 0.00 | 49 | 1010.6 |
| 20260504171136 | 71 | 203 | 1.0 | 1.0 | 0.00 | 0.00 | 0.00 | 51 | 1011.0 |
| 20260504151114 | 57 | 258 | 0.0 | 1.0 | 0.00 | 0.00 | 0.00 | 82 | 1011.2 |
| 20260504141107 | 50 | 278 | 1.0 | 1.0 | 0.00 | 0.00 | 0.00 | 95 | 1011.1 |
| 20260504081000 | 51 | 247 | 0.0 | 0.0 | 0.00 | 0.00 | 0.00 | 94 | 1010.7 |